Regional Weather Roundup
Issued by NWS Upton, NY

Home | Current Version | Previous Version | Text Only | Print | Product List | Glossary On
Versions: 1 2 3 4 5 6 7 8 9 10 11 12 13 14 15 16 17 18 19 20 21 22 23 24 25 26 27
000
ASUS41 KOKX 191508
RWROKX

Regional Weather Roundup
National Weather Service New York NY
1000 AM EST FRI JAN 19 2018

Note: "FAIR" indicates few or no clouds below 12,000 feet with no
significant weather and/or obstructions to visibility.

NYZ071-072-176-178-NJZ106-104-191600-
New York City Metro Area

CITY           SKY/WX    TMP DP  RH WIND       PRES   REMARKS
Central Park   FAIR      31  13  47 VRB5      30.10R WCI  26
Bronx Bot Gard   N/A     32  14  47 W2        30.09R
Bronx Lehman C   N/A     32  14  47 W5          N/A  WCI  27
LaGuardia Arpt CLOUDY    32  12  43 W14       30.08S WCI  22
Queens College   N/A     32  14  47 W10         N/A  WCI  24
Kennedy Intl   PTSUNNY   32  16  51 SW14      30.10S WCI  22
Breezy Point     N/A    N/A N/A N/A W7G14       N/A
Brooklyn Coll    N/A     32  16  51 SW6         N/A  WCI  26
Staten Island    N/A     30  18  59 SW3         N/A
Newark/Liberty CLOUDY    30  14  51 SW8       30.09S WCI  22
Teterboro      FAIR      31  14  49 W8        30.07S WCI  23
$$

NYZ177-179-078>081-191600-
Long Island New York

CITY           SKY/WX    TMP DP  RH WIND       PRES   REMARKS
Jones Beach      N/A    N/A N/A N/A W16         N/A
Wantagh          N/A     32  18  55 W8          N/A  WCI  25
Matinecock Pt    N/A     32 N/A N/A W18         N/A  WCI  20
Farmingdale    FAIR      32  15  49 W9        30.08S WCI  24
MacArthur/ISP  CLOUDY    33  18  53 W9        30.07R WCI  25
Shirley          N/A    N/A N/A N/A MISG      30.08R
Mt Sinai Harb    N/A    N/A N/A N/A W5G10       N/A
Westhampton    FAIR      29  17  61 W9        30.08S WCI  20
East Hampton   FAIR      28  18  66 W7        30.06S WCI  20
Southold         N/A     32  18  55 W8          N/A  WCI  25
Montauk          N/A     31  21  66 W13       30.06R WCI  21
$$

NYZ052-065-067-191600-
Hudson Valley

CITY           SKY/WX    TMP DP  RH WIND       PRES   REMARKS
White Plains   FAIR      27  13  55 W7        30.04R WCI  19
Larchmont Harb   N/A    N/A N/A N/A SW14        N/A
Croton On Huds   N/A    N/A N/A N/A S2          N/A
Somers           N/A     25  16  68 SW2         N/A
Brewster         N/A     23  16  74 S3          N/A
Newburgh       PTSUNNY   19  14  79 VRB6      30.05R WCI  11
Montgomery     FAIR      22  13  68 SW9       30.02S WCI  12
Otisville        N/A     21  12  68 S5          N/A  WCI  15
Warwick          N/A     19  16  86 SE1         N/A
Suffern          N/A     27  14  59 SW3         N/A
Poughkeepsie   FAIR      23  13  65 SW6       30.05R WCI  16
Albany         CLOUDY    20  12  71 S7        30.03R WCI  11
$$

NJZ001-105-106-008-010-013-015-019>022-104-191600-
New Jersey

CITY           SKY/WX    TMP DP  RH WIND       PRES   REMARKS
Newark/Liberty CLOUDY    30  14  51 SW8       30.09S WCI  22
Teterboro      FAIR      31  14  49 W8        30.07S WCI  23
Caldwell       FAIR      26  15  63 VRB3      30.08S
Somerville     FAIR      20  19  96 CALM      30.09R
Linden         FAIR      29  14  52 CALM      30.10R
Perth Amboy      N/A    N/A N/A N/A W7          N/A
Sussex         FAIR      11  10  96 CALM      30.04S
Andover        NOT AVBL
Trenton        FAIR      29  18  63 SW6       30.10R WCI  23
Millville      FAIR      38  20  48 W9        30.14R WCI  31
Atlantic City  FAIR      40  18  41 W10       30.12R WCI  33
Wrightstown    FAIR      32  18  57 W6        30.08S WCI  26
Toms River     FAIR      36  17  46 W9        30.12R WCI  29
Belmar         FAIR      32  20  61 W5        30.11S WCI  27
$$

PAZ047>061-062-071-191600-
Eastern Pennsylvania

CITY           SKY/WX    TMP DP  RH WIND       PRES   REMARKS
Philadelphia   PTSUNNY   35  19  52 W9        30.13R WCI  28
Allentown      FAIR      20  12  71 CALM      30.08R
Scranton       FAIR      25  13  60 SW9       30.04R WCI  15
$$

CTZ002-004>006-009-010-012-RIZ004-006-007-MAZ004-011-015-191600-
Southern New England

 In CT

CITY           SKY/WX    TMP DP  RH WIND       PRES   REMARKS
Bradley Intl   PTSUNNY   27  15  61 SW5       30.02F WCI  22
Hartford       FAIR      26  14  60 W7        30.05S WCI  18
Danbury        FAIR      24  14  65 SW7       30.04F WCI  16
Wtrbury/Oxford FAIR      23  14  68 W7        30.01F WCI  15
Norwalk Harbor   N/A    N/A N/A N/A W7          N/A
Bridgeport     FAIR      28  15  58 W10       30.07S WCI  19
Meriden        FAIR      27  15  61 CALM      30.04F
New Haven      PTSUNNY   27  15  61 W5        30.06S WCI  22
Chester        FAIR      28  14  54 VRB5G12   30.02S WCI  23
Groton         FAIR      29  14  53 W8        30.04S WCI  21
Willimantic    FAIR      27  15  61 SW7       30.03R WCI  19

 In RI

CITY           SKY/WX    TMP DP  RH WIND       PRES   REMARKS
Providence     PTSUNNY   29  17  61 W9        30.02S WCI  20
Block Island   FAIR      31  23  72 W18       30.04R WCI  19
Westerly       FAIR      30  16  56 W8        30.04S WCI  22

In MA

CITY           SKY/WX    TMP DP  RH WIND       PRES   REMARKS
Boston         PTSUNNY   28  18  66 W12       29.99R WCI  18
Worcester      CLOUDY    21  13  71 W13       29.94R WCI   9
Westfield      FAIR      24  15  68 SW5       30.01S WCI  18
Provincetown   FAIR      32  23  69 W9        29.99S WCI  24
Nantucket      FAIR      28  20  71 W12       30.01S WCI  18
$$

ANZ330-335-338-340-345-350-353-355-191600-
Coastal Marine Observations


STATION/POSITION TIME  SKY/WX   TEMP    WIND        PRES    VSBY  WAVE
                                AIR SEA DIR/SP/G                  HT/PER
                 (UTC)          (F)     (DEG/KT/KT) (MB)    (MI)  (FT/S)
NY Harb Entrance 1350            33 40  260/ 16/ 19 1018.3          2/ 3
20 S Fire Island 1350            35 42  270/ 17/ 21 1018.3          4/ 4
15 E Barnegat Li 1430               43                N/A           2/11
Hudson Canyon    1350            39 49  280/ 19/ 21 1018.3          5/ 6
Kings Point      1430            31 32  300/  8/ 12 1019.5
Execution Rocks  NOT AVBL
Western LI Sound NOT AVBL
Central LI Sound 1445            29     280/ 16/ 17   N/A           2
Robbins Reef     1442            29     250/ 10/ 12 1019.5
$$


>>>>>>>>>>>>>>>>>>>>>>>>>>>> KEY <<<<<<<<<<<<<<<<<<<<<<<<<<<
>                                                          <
>     SKY/WX - Sky Condition/Present Weather               <
>     TMP    - Temperature in Fahrenheit                   <
>     DP     - Dew Point in Fahrenheit                     <
>     RH     - Relative Humidity in Percent                <
>     WIND   - Direction (from) and Speed in MPH           <
>     PRES   - Mean Sea Level Pressure (inches of Hg)      <
>     WCI    - Wind Chill Index                            <
>     VSB    - Visibility in Miles                         <
>     HX     - Heat Index                                  <
>     TC     - Temperature in Celsius                      <
>     VRB    - Varibale Wind Direction                     <
>                                                          <
>>>>>>>>>>>>>>>>>>>>>>>>>>>> KEY <<<<<<<<<<<<<<<<<<<<<<<<<<<




USA.gov is the U.S. government's official web portal to all federal, state and local government web resources and services.